RH
62 64 64 65 65 66 67 68 69 70 70 70 69 69 69 68 64 64 65 62 60 60 57 56 55 51 48 45 40 36 32 30 30 29 28 28 27 27 26 27 27 27 28 28 29 29 29 29 28 28 29 29 30 30 31 32 33 34 34 34 34 34 33 33 32 32 32 33 34 35 37 38 39 42 44 45 46 46 45 46 47 47 47 47 47 48
66 69 71 71 73 74 75 75 75 75 75 74 72 69 64 59 53 49 47 44 43 42 40 39 38 34 31 31 30 29 31 33 35 36 37 37 37 38 38 38 39 40 41 41 42 42 42 42 42 42 42 43 44 43 44 44 44 44 43 43 43 41 40 39 37 35 35 34 33 34 34 35 35 36 39 39 39 41 41 42 44 45 47 47 48 49
72 74 75 76 77 78 77 77 76 75 71 65 57 49 42 37 34 32 31 31 29 27 27 29 29 27 27 28 29 30 32 33 35 36 37 38 40 42 43 45 46 48 48 48 48 47 47 47 47 47 47 46 46 45 45 45 45 44 43 43 41 40 38 37 35 34 34 33 33 33 33 33 33 33 34 34 34 34 35 34 35 37 38 40 41 42
74 75 76 77 78 77 75 72 66 58 49 41 35 32 29 29 29 28 28 29 28 26 27 28 27 26 26 27 27 28 28 28 29 30 31 32 33 34 35 37 38 38 38 38 38 38 37 37 37 36 36 35 34 34 33 33 33 33 32 32 31 31 30 30 29 29 29 29 29 29 30 30 30 31 31 32 32 32 32 32 31 32 32 33 34 35
75 75 76 76 74 69 61 52 42 35 30 29 29 29 28 27 28 27 26 27 26 26 27 27 26 25 26 28 28 28 28 28 29 29 30 30 30 30 30 30 30 29 29 29 29 29 29 29 29 29 29 29 28 28 28 28 28 28 28 28 28 28 28 28 28 28 28 29 29 29 29 29 29 29 30 30 31 31 31 31 31 31 30 31 31 31
74 73 69 64 56 46 38 32 28 28 28 28 28 28 28 27 27 27 27 28 27 28 30 31 29 27 28 31 31 33 34 34 34 34 35 35 35 35 34 33 33 33 33 33 33 33 33 33 33 33 33 33 33 33 33 33 33 33 32 32 32 32 32 32 31 32 32 32 33 33 33 34 34 34 34 33 33 33 33 33 33 33 32 32 32 32
63 57 49 41 34 29 27 27 27 27 28 28 27 28 29 29 30 31 31 32 31 31 33 36 36 32 30 31 34 38 40 40 40 40 40 39 38 38 37 38 38 38 38 38 39 38 39 39 39 39 39 39 39 38 38 38 37 37 37 36 36 35 35 35 35 35 35 34 34 34 34 34 33 33 34 33 34 34 35 36 36 36 35 35 35 34
42 36 31 27 26 26 26 27 27 28 29 30 30 31 32 33 34 34 34 35 33 32 33 35 37 34 28 27 31 35 37 38 38 38 36 35 34 34 34 34 34 35 35 35 35 35 35 35 34 35 34 34 34 34 34 34 34 33 33 34 34 34 33 33 33 32 32 31 31 30 29 29 29 29 29 29 30 30 30 31 31 31 31 31 31 32
28 27 26 27 28 28 29 30 30 31 31 31 31 31 31 31 31 30 30 30 28 27 27 27 28 28 24 22 24 26 27 28 28 27 26 25 25 25 25 26 26 26 26 26 26 25 26 25 25 25 25 26 25 26 26 26 26 26 26 27 27 27 27 26 26 26 26 26 26 26 25 25 25 24 25 25 25 25 25 25 25 26 26 26 26 27
28 29 29 30 30 29 29 29 28 27 27 26 25 25 24 24 24 23 23 23 23 22 22 22 22 22 21 18 19 22 22 22 22 22 22 21 21 22 22 22 22 23 23 23 23 24 24 24 24 24 24 24 24 25 25 25 25 25 25 25 25 25 25 25 24 24 24 24 24 24 24 24 24 24 24 24 24 25 25 25 25 25 24 24 24 24
30 29 28 28 27 26 25 24 24 24 23 23 23 23 24 24 24 24 24 24 24 24 24 25 25 25 24 21 23 25 25 24 24 24 24 24 24 24 25 25 25 25 26 26 27 27 28 28 28 27 27 27 27 28 28 28 28 28 28 28 28 27 27 27 27 27 27 27 27 27 27 28 28 28 28 29 29 28 28 29 29 29 29 29 29 29
25 24 24 24 24 25 25 25 26 27 27 27 28 28 29 29 29 30 32 33 33 31 30 32 33 33 31 29 30 33 32 31 31 31 32 32 32 31 32 32 32 33 34 34 35 34 34 34 34 34 34 34 35 35 36 36 36 36 37 37 37 37 36 36 37 37 37 37 38 38 38 38 39 39 39 40 40 40 40 40 40 40 39 39 38 38
23 24 25 26 27 28 29 30 30 31 32 32 33 33 34 35 36 36 38 39 40 39 38 40 42 41 39 36 36 37 37 38 37 37 38 38 38 38 38 39 39 39 39 39 39 39 39 40 40 41 41 42 43 44 44 45 45 46 46 47 48 48 48 48 48 48 49 49 49 50 50 51 51 51 52 52 53 52 51 51 51 50 49 48 47 46
31 32 32 33 34 34 35 36 36 37 38 39 39 39 40 40 40 42 43 43 43 42 41 42 46 46 43 41 40 40 40 41 41 40 41 41 42 43 42 43 42 42 42 42 42 42 42 42 43 43 44 44 45 46 47 47 48 48 49 50 50 51 52 53 53 53 53 53 53 53 53 53 54 54 54 54 55 55 54 54 54 54 53 53 51 50
35 36 36 37 37 38 38 39 39 40 40 41 41 41 41 41 40 40 41 41 41 41 40 41 43 44 43 42 42 42 41 40 40 40 41 41 42 42 43 43 43 43 43 43 43 44 44 44 44 44 44 45 45 46 46 47 47 47 47 48 48 49 49 50 50 51 51 51 50 49 49 48 48 48 48 48 48 48 48 48 48 48 48 48 48 48
35 35 35 36 36 36 37 37 38 38 38 38 38 39 39 38 37 37 37 36 36 36 36 37 38 38 38 38 39 39 39 38 38 38 38 38 38 38 39 39 39 40 40 41 41 42 43 43 43 43 43 43 43 44 44 44 44 45 44 44 44 45 45 45 46 46 46 46 46 45 45 45 44 44 44 43 43 42 42 42 41 41 41 41 41 41
33 33 32 33 33 33 33 34 34 34 35 34 34 35 34 34 34 33 33 32 31 31 31 30 31 31 31 32 33 32 32 32 32 32 32 32 32 32 32 33 33 33 34 34 35 35 36 36 36 37 37 38 38 38 39 39 39 39 39 39 39 39 39 39 39 40 39 39 40 40 39 39 39 39 39 38 38 37 36 35 35 34 34 34 33 32
30 30 30 30 30 30 31 31 32 32 31 32 31 31 30 30 29 28 27 26 25 25 24 23 23 22 23 24 24 23 23 22 22 22 22 22 22 23 23 23 23 23 23 24 24 24 24 25 25 25 25 26 26 26 27 27 27 27 27 27 27 27 27 27 27 28 27 27 27 27 27 27 27 27 27 27 26 26 25 25 24 23 23 23 22 21
28 28 28 28 28 28 28 28 28 27 26 26 25 24 23 22 21 20 19 18 17 17 16 16 15 14 15 15 15 15 15 15 15 15 15 15 15 15 15 15 15 15 15 15 15 15 15 16 16 16 16 16 16 17 17 17 17 17 17 17 17 17 18 18 18 18 18 18 18 18 18 18 18 18 18 18 18 17 17 17 16 15 15 15 14 14
25 25 25 25 24 24 23 22 21 20 20 18 17 16 15 15 14 13 13 12 12 11 11 11 12 12 12 12 13 13 12 13 13 13 13 12 12 13 12 13 13 12 12 12 13 12 12 13 13 13 13 13 13 13 13 14 14 13 13 13 13 14 14 14 14 14 14 14 14 14 14 14 14 14 14 13 13 13 12 12 11 11 11 10 10 10
23 22 22 21 20 19 18 18 17 16 15 15 15 14 14 13 12 12 12 11 11 11 10 10 10 10 11 11 11 11 11 11 11 11 11 11 11 11 11 11 11 11 11 11 11 11 11 11 11 11 11 11 11 11 11 11 11 11 11 11 11 11 11 11 11 11 11 11 11 11 11 11 11 11 10 10 10 10 10 9 9 9 8 8 8 8
21 20 19 18 17 17 16 16 16 15 15 14 14 14 13 13 12 12 12 11 11 11 10 10 9 9 9 9 9 9 9 8 9 9 9 9 9 9 9 9 9 9 9 9 9 9 9 9 9 9 9 9 10 10 10 10 10 10 10 10 11 11 11 11 11 11 11 11 11 11 11 11 11 10 10 10 10 9 9 9 9 8 8 8 8 8
20 19 18 18 17 16 15 15 14 14 14 13 13 12 12 11 11 11 10 10 9 9 8 8 7 7 7 8 7 7 7 7 8 8 8 8 8 8 8 8 8 9 8 9 9 9 9 9 9 9 9 9 10 10 10 10 10 11 11 11 11 11 12 12 11 12 12 12 12 12 11 11 11 11 10 10 10 9 9 8 8 8 7 7 7 7
22 21 20 19 19 19 19 18 18 18 17 16 14 13 12 11 10 10 9 9 8 8 7 7 7 7 7 7 7 7 7 7 8 8 8 8 8 8 9 8 9 9 9 9 9 9 9 9 9 9 9 9 10 10 10 10 11 11 11 11 11 11 11 11 11 11 11 11 11 10 10 10 9 9 9 8 8 7 7 7 7 6 6 6 6 6
24 24 25 26 27 27 27 27 26 25 23 21 18 16 14 12 12 11 10 9 8 8 8 8 8 7 7 7 8 8 7 8 8 8 8 8 8 8 8 8 8 8 8 8 9 9 9 9 9 9 10 10 10 10 10 10 10 10 10 10 10 10 10 9 9 9 9 9 9 8 8 8 8 8 7 7 7 7 7 7 7 7 7 7 7 7
33 34 36 36 36 35 34 33 31 30 27 25 22 19 17 15 13 12 11 9 9 9 9 9 9 8 8 8 8 9 8 8 8 8 8 8 9 9 9 9 9 9 9 9 9 9 9 9 10 10 10 10 10 10 10 10 10 9 9 9 9 9 9 9 9 9 9 9 8 8 8 8 8 8 8 8 7 7 7 7 7 7 7 7 7 6
45 45 44 43 42 41 39 36 34 32 29 26 23 20 17 15 14 12 10 9 9 9 9 9 9 9 8 8 8 9 9 9 9 10 10 10 10 10 10 10 10 10 10 10 10 10 10 10 10 10 10 10 10 10 10 10 10 10 10 9 9 9 9 9 9 9 9 9 8 8 8 8 8 8 8 8 8 7 7 7 7 7 6 6 6 6
51 50 48 46 46 45 42 39 36 33 30 27 24 20 17 15 14 12 10 10 9 9 9 9 9 9 9 8 9 9 9 9 10 10 10 10 10 10 10 10 9 9 9 9 9 9 9 9 9 9 9 9 9 9 9 9 9 9 9 9 9 9 8 8 8 8 8 8 7 7 7 7 7 7 7 6 6 6 6 6 5 5 5 5 5 4
52 49 48 48 47 44 43 40 37 34 31 28 24 21 18 16 13 12 11 10 10 9 9 9 9 9 9 8 8 9 9 9 9 9 9 9 9 9 9 8 8 8 8 8 8 8 8 8 8 8 8 8 8 8 8 8 8 7 7 7 7 7 7 7 6 6 6 6 6 6 6 6 5 5 5 5 5 5 4 4 4 4 4 4 4 4
52 51 50 49 47 46 44 41 38 35 32 29 26 23 20 17 14 12 11 11 10 9 9 9 9 9 9 9 9 10 10 10 10 10 10 10 9 9 9 9 8 8 8 8 8 8 8 8 8 8 8 8 7 7 7 7 7 7 6 6 6 6 6 6 6 6 6 5 6 5 5 5 5 5 5 4 4 4 4 4 4 4 4 3 3 3
53 52 51 50 50 49 46 42 39 36 33 30 28 25 22 18 15 13 12 10 10 10 10 9 9 9 9 10 11 11 11 11 11 11 11 11 10 10 11 10 10 10 9 9 9 9 8 8 8 8 8 8 8 8 8 7 7 7 7 6 7 6 6 6 6 6 6 6 6 5 5 5 5 4 4 4 4 4 4 4 4 4 4 3 3 3
54 54 54 53 51 49 47 44 40 36 33 31 29 26 23 21 18 14 12 11 10 10 11 10 10 10 9 10 10 11 11 11 11 12 12 12 11 11 11 11 10 10 10 10 9 9 9 9 9 9 9 9 9 8 8 8 7 7 7 7 6 6 6 6 6 6 6 6 6 6 5 5 5 5 5 4 4 4 4 4 4 4 4 4 3 3
55 55 55 54 51 49 48 45 41 38 35 32 29 26 25 24 21 16 12 12 11 10 10 10 9 10 10 10 10 11 12 12 13 13 12 12 12 11 11 11 11 11 10 10 10 9 9 9 9 9 9 8 8 8 8 8 7 7 7 7 6 7 6 6 7 7 6 6 6 6 5 5 5 5 5 5 4 4 4 4 4 3 3 3 3 3
57 56 55 54 53 52 51 50 48 46 41 36 33 30 27 26 24 19 14 13 13 11 11 11 11 11 11 11 11 12 13 13 14 13 12 12 12 11 11 11 11 10 10 10 10 9 9 9 9 9 9 8 8 8 7 7 7 7 7 7 7 7 7 7 7 7 6 6 6 5 5 5 5 5 4 4 4 4 4 3 4 3 3 3 3 3
57 56 55 54 54 54 55 54 52 47 42 39 36 32 28 25 25 24 19 15 15 13 12 12 11 11 11 11 11 12 13 13 14 14 13 13 12 11 11 11 11 11 11 10 10 10 9 9 9 9 9 8 8 7 7 7 7 7 7 7 7 7 7 7 7 6 6 6 5 5 5 5 5 5 4 4 4 4 4 4 4 3 3 3 3 3
58 56 56 55 53 53 54 54 52 49 48 47 43 36 31 26 25 25 22 17 15 13 12 12 12 11 11 11 11 11 12 12 14 15 14 14 13 13 12 12 11 11 11 10 10 10 9 9 9 9 9 8 7 7 7 7 7 7 7 7 7 7 7 7 7 6 6 5 5 5 5 5 5 4 4 4 4 4 4 3 3 3 3 3 3 3
63 60 59 58 55 53 53 54 55 55 54 50 46 41 34 27 23 22 21 18 16 15 14 12 12 11 11 10 10 10 11 11 12 14 14 13 13 13 12 12 12 11 11 10 9 9 9 9 9 8 8 7 7 7 7 7 8 8 8 8 7 7 7 6 6 6 5 5 5 5 5 5 5 4 4 4 4 4 4 3 3 3 3 3 3 3
69 67 64 61 58 55 53 53 53 54 52 47 44 42 37 29 23 21 21 20 18 17 16 13 12 12 11 10 10 10 11 11 11 12 13 13 13 13 12 12 12 11 10 10 9 9 8 8 8 7 7 7 7 7 7 7 8 8 8 7 7 7 6 6 6 5 5 5 5 5 5 4 4 4 4 4 4 3 3 3 3 3 3 3 3 3
72 71 67 64 63 61 59 57 54 54 54 51 46 43 40 33 26 22 21 20 18 16 15 14 12 12 11 10 10 9 10 11 11 12 12 12 12 12 12 12 11 11 10 9 9 8 8 7 7 7 7 7 7 7 7 7 7 7 7 7 6 6 6 5 5 5 5 5 4 4 4 4 4 4 4 4 4 3 3 3 3 3 3 3 3 3
76 74 72 69 66 65 65 65 60 55 55 55 49 43 41 39 33 26 21 19 18 17 16 15 14 12 11 10 10 10 9 10 12 12 12 12 12 12 12 12 11 11 10 9 9 8 7 7 7 6 7 7 7 7 7 7 7 7 6 6 5 5 5 5 5 5 4 4 4 4 4 4 4 4 4 4 4 3 3 3 3 3 3 3 3 3
80 78 75 71 68 66 64 66 66 60 55 56 54 47 43 41 37 31 25 21 20 20 18 17 15 13 12 11 10 10 10 10 11 12 13 13 13 13 13 13 12 11 10 9 9 8 7 7 6 7 7 7 8 8 8 7 7 7 6 6 5 5 5 5 5 5 4 4 4 4 4 4 4 4 4 4 4 3 3 3 3 3 3 3 4 3
82 81 78 74 70 67 62 61 65 63 55 52 52 50 46 43 40 36 30 25 23 23 22 20 18 16 14 13 12 11 11 11 12 13 14 14 13 13 13 13 13 11 10 9 9 8 7 7 7 7 7 8 8 8 8 8 7 6 6 5 5 5 5 5 5 5 4 4 4 4 4 4 4 4 4 4 4 4 3 3 3 3 3 3 4 4
83 82 82 78 72 68 63 57 57 57 52 46 44 45 45 44 42 39 35 30 26 26 25 23 21 18 16 15 13 12 12 11 12 13 14 14 14 14 14 14 13 12 11 10 8 8 7 7 7 7 8 8 8 8 8 8 7 6 6 5 5 5 5 5 5 5 4 4 4 4 4 4 4 4 4 4 4 4 3 3 3 3 4 4 4 4
85 85 85 85 80 74 69 61 53 52 52 50 46 44 43 43 42 40 37 34 29 27 27 26 23 21 19 17 15 13 12 12 12 13 14 15 14 14 14 14 13 12 11 10 8 7 7 7 7 7 8 8 8 8 7 7 7 6 6 5 5 5 5 5 5 5 4 4 4 4 4 4 4 4 4 4 4 4 3 3 3 3 3 4 4 4
86 87 87 90 92 89 84 76 65 59 57 56 55 52 49 48 47 45 41 36 32 30 29 29 27 23 21 19 16 14 13 12 12 13 14 15 15 14 14 14 13 12 11 10 9 8 7 7 7 7 8 8 8 7 7 7 7 6 6 6 5 5 5 5 5 4 4 4 4 4 4 4 4 4 4 4 4 4 3 3 3 3 3 4 4 4
86 88 87 90 95 98 97 93 83 71 63 58 57 57 56 54 52 50 46 40 35 32 31 31 30 26 23 20 18 15 14 12 12 13 14 15 15 14 14 14 14 13 11 10 9 8 7 7 8 8 8 8 7 7 7 7 7 6 6 6 5 5 5 5 5 4 5 4 4 4 4 4 4 4 4 4 4 4 3 3 3 3 3 4 4 4
88 90 90 90 93 96 99 99 92 79 67 58 53 52 55 56 54 52 49 43 37 35 33 33 31 29 25 22 19 17 15 13 12 13 14 15 15 14 14 14 14 13 12 11 10 9 8 8 8 8 8 8 7 7 7 7 7 6 6 6 5 5 5 5 5 5 5 5 4 4 4 4 4 4 4 4 4 4 3 3 3 3 3 3 4 4
90 91 92 92 93 95 98 100 97 86 73 62 55 51 51 53 53 52 50 45 39 36 36 36 34 32 28 24 21 18 16 14 13 13 14 15 16 15 15 15 14 14 12 11 10 9 9 8 8 9 9 8 7 7 7 7 6 6 6 6 5 5 5 5 5 5 5 5 5 4 4 4 4 4 4 4 4 4 4 3 3 3 3 3 3 4
90 92 93 93 93 94 97 101 101 94 80 66 58 54 52 51 49 48 45 42 39 37 37 38 38 36 32 27 23 19 17 15 14 13 13 15 16 16 15 15 15 14 12 11 10 9 9 9 9 9 8 8 7 7 6 7 6 6 6 6 5 5 5 5 5 5 5 5 4 4 4 4 4 4 4 4 4 4 4 4 3 3 3 3 3 4
91 94 95 95 95 95 96 98 100 97 85 67 53 48 48 47 45 43 41 40 38 37 38 39 39 38 35 30 25 21 18 16 14 13 13 15 16 16 15 15 15 14 13 11 10 9 9 10 9 9 9 8 7 7 6 6 6 6 6 6 6 6 5 5 5 5 5 5 4 4 5 4 4 5 4 4 4 4 4 4 3 3 3 3 3 4
92 95 97 97 97 96 96 97 100 99 91 72 52 41 40 41 41 39 38 37 36 37 38 39 39 39 37 33 28 24 20 17 15 14 13 14 16 17 16 15 15 15 13 12 10 10 10 10 10 9 9 7 7 7 6 6 6 6 6 6 6 6 5 5 5 5 5 5 5 4 5 4 5 5 5 4 4 4 4 4 4 4 3 3 3 4
Wind_Speed
73 74 75 76 77 78 78 80 81 82 83 84 86 87 88 90 90 90 92 94 95 96 96 95 96 96 96 95 95 94 93 91 90 89 89 89 89 89 89 90 90 91 91 92 92 92 93 93 94 94 95 95 95 95 96 96 96 96 96 96 96 96 96 97 97 98 98 99 99 100 100 100 101 101 102 102 102 103 103 104 104 104 104 105 105 105
73 73 75 76 78 79 79 81 81 83 84 85 86 87 88 89 89 89 90 91 92 93 92 91 91 90 89 88 86 85 84 84 83 83 84 84 84 85 85 86 86 87 88 88 89 89 90 90 91 91 92 92 93 93 94 94 95 95 95 96 96 97 97 97 98 98 99 99 100 100 101 101 101 102 102 103 104 104 105 105 106 106 107 107 107 107
74 75 76 78 79 80 81 81 82 83 84 84 85 85 85 84 84 84 84 85 85 85 84 83 84 83 82 82 81 81 81 82 82 82 83 83 83 84 85 85 86 87 87 88 88 89 90 90 91 91 92 93 93 94 94 95 96 96 97 97 98 98 99 99 100 100 101 101 101 102 102 102 103 103 103 104 104 105 106 106 107 108 108 109 109 110
76 77 78 79 79 80 80 81 81 81 81 81 81 82 81 81 81 81 80 81 82 81 80 81 82 81 80 81 81 82 83 83 83 84 84 85 85 86 86 87 88 88 89 89 90 91 91 92 93 93 94 94 95 96 96 97 97 98 99 99 100 100 101 101 102 102 103 103 103 104 104 105 105 105 105 106 106 107 107 108 108 109 109 110 110 111
76 77 77 78 78 78 79 78 78 78 78 78 78 80 80 79 80 80 80 80 81 80 80 82 83 81 80 82 83 83 84 85 85 86 86 87 87 88 89 89 90 90 91 91 92 93 93 94 95 95 96 97 97 98 98 99 100 100 101 101 102 102 103 103 104 104 105 105 106 106 106 107 107 107 108 108 108 109 109 110 110 111 111 111 112 112
75 75 76 76 76 76 76 75 75 76 77 77 77 79 80 80 79 80 81 81 81 80 80 84 85 83 81 82 84 85 86 87 88 88 89 89 90 91 91 91 92 92 93 94 94 95 95 96 97 98 98 99 100 100 101 101 102 103 103 104 105 105 106 106 106 107 107 108 108 108 109 109 110 110 111 111 111 112 112 112 113 113 113 114 114 114
73 73 73 73 73 73 73 74 75 75 76 77 77 78 79 80 80 81 81 83 83 81 81 83 86 86 84 81 82 85 88 88 89 90 91 91 92 92 93 93 94 94 95 95 96 97 97 98 99 99 100 101 101 102 103 103 104 105 105 106 106 107 107 108 108 109 109 110 110 110 111 111 112 112 113 113 113 114 114 114 115 115 116 116 116 117
70 70 71 71 72 72 73 74 75 75 76 77 78 78 79 80 81 81 82 83 84 83 81 82 85 88 87 81 80 83 87 89 90 90 91 92 92 92 93 93 94 94 95 96 96 97 98 99 99 100 101 101 102 103 103 104 105 105 106 106 107 108 108 109 109 110 110 111 111 112 112 112 113 113 113 114 114 115 115 115 116 116 117 117 117 118
69 70 70 71 72 73 74 74 75 76 76 77 78 78 78 79 79 80 80 81 82 82 81 81 83 86 87 82 79 80 84 87 88 89 90 90 90 91 91 92 92 93 94 94 95 96 97 97 98 99 99 100 101 101 102 103 104 104 105 106 106 107 108 108 109 109 110 111 111 111 112 112 113 113 113 114 114 115 115 115 115 116 116 117 117 117
69 70 71 72 72 73 73 73 74 74 74 74 75 75 75 76 76 77 77 78 80 79 79 80 81 83 84 81 77 79 82 85 86 87 88 88 88 89 89 90 91 91 92 93 93 94 95 96 96 97 97 98 99 99 100 101 102 103 104 104 105 106 106 107 108 108 109 110 110 110 111 111 112 112 112 113 113 114 114 114 115 115 115 116 116 116
68 68 68 69 69 69 69 69 70 70 70 70 71 72 72 73 73 74 75 76 78 77 76 78 80 82 83 80 76 79 83 83 84 85 86 87 88 88 89 90 90 91 91 92 93 93 94 95 95 96 97 97 98 99 100 100 101 102 103 104 105 105 106 106 107 108 108 109 109 110 110 111 111 112 112 112 113 114 114 114 115 115 116 116 116 116
64 63 63 63 64 64 65 65 66 67 67 68 69 69 70 71 71 72 73 75 77 77 76 76 79 81 83 80 78 80 83 84 84 84 86 87 88 89 89 90 91 91 92 93 94 94 95 96 96 97 98 98 99 100 100 101 102 103 104 105 105 106 107 108 108 109 109 110 111 111 112 112 113 113 114 114 115 116 116 117 117 118 118 119 119 119
61 61 61 61 62 63 63 64 65 66 67 68 68 70 70 71 72 72 73 75 76 78 77 76 80 82 83 82 81 82 83 85 86 86 87 88 89 90 91 92 92 93 94 95 96 97 97 98 98 99 100 100 101 102 103 104 104 105 106 107 108 108 109 110 111 111 112 113 113 114 114 115 116 116 117 117 118 119 120 120 121 121 122 123 123 123
60 61 61 61 62 63 63 64 65 66 67 68 69 70 71 72 73 73 74 76 77 79 78 78 80 83 84 84 85 85 86 87 88 88 89 90 91 92 93 94 95 96 97 98 99 99 100 101 101 102 103 103 104 105 106 107 107 108 109 110 110 111 112 113 114 114 115 116 116 117 118 118 119 120 120 121 122 122 123 124 125 125 126 127 127 128
59 60 61 62 63 64 65 66 67 68 69 70 71 73 74 75 76 76 77 78 80 81 81 81 83 85 87 87 88 89 90 90 91 91 92 93 94 95 96 97 98 99 100 101 101 102 103 104 105 105 106 107 107 108 109 110 111 112 112 113 114 115 115 116 117 118 119 120 121 121 122 123 123 124 125 126 126 127 128 128 129 129 130 131 131 132
60 61 63 64 65 66 67 69 70 71 72 73 74 76 77 79 80 80 81 82 83 84 84 85 86 88 89 90 91 93 94 94 95 95 96 97 98 99 100 101 102 102 103 104 105 106 107 108 109 109 110 111 111 112 113 114 115 116 117 117 118 119 120 121 121 122 123 124 125 126 127 127 128 129 130 130 131 132 132 133 133 134 135 135 136 136
63 64 65 66 67 68 69 70 72 73 74 75 76 77 79 80 82 82 83 84 85 86 86 87 88 89 89 90 92 94 95 95 96 97 98 99 100 101 102 103 103 104 105 106 107 108 109 110 111 111 112 113 114 115 116 117 117 118 119 120 121 122 122 123 124 125 126 127 128 129 129 130 131 132 133 133 134 135 135 136 136 137 137 138 138 138
63 65 66 67 68 68 69 70 71 72 74 74 76 77 78 79 80 82 82 82 83 84 85 86 87 87 87 88 90 92 93 93 94 95 96 97 98 99 100 101 102 103 104 105 106 107 108 109 110 111 111 112 113 114 115 116 117 118 119 120 121 121 122 123 124 125 126 127 128 128 129 130 131 132 133 133 134 135 136 136 137 137 137 138 138 139
62 63 64 65 65 66 67 68 68 70 71 71 72 74 75 75 77 78 79 79 80 80 81 82 84 84 84 85 87 88 89 90 91 92 93 94 95 96 97 99 100 101 101 102 103 104 105 106 108 109 110 110 111 112 114 115 116 117 118 118 119 120 121 122 123 124 125 126 126 127 128 129 130 131 132 133 134 134 135 136 136 136 137 137 138 138
58 59 60 61 61 62 63 64 65 66 67 68 69 70 71 72 73 74 75 76 76 76 76 76 78 80 80 81 83 84 85 87 88 89 90 91 92 93 95 96 97 98 99 100 101 103 103 104 106 107 108 109 110 111 112 113 114 115 116 117 118 119 120 120 121 122 123 124 125 126 127 128 129 130 131 132 133 134 134 135 135 135 136 136 136 137
54 55 56 57 57 58 59 61 62 63 63 65 66 67 69 70 71 71 72 73 74 74 74 73 73 74 76 78 79 80 81 82 84 85 86 88 89 91 92 94 95 96 98 99 100 101 102 103 104 105 106 107 108 109 110 112 113 114 115 115 116 117 118 119 120 121 122 123 124 125 126 127 127 128 129 130 131 132 132 133 133 133 133 133 134 134
51 52 52 53 54 55 56 57 58 60 60 61 62 63 64 66 67 68 69 70 71 72 72 72 71 70 71 75 77 77 78 79 80 82 83 84 86 87 89 91 92 93 95 96 97 98 99 100 102 103 104 105 106 107 108 109 110 112 112 113 114 115 116 117 117 118 119 120 121 122 123 124 125 126 126 127 128 129 129 129 129 130 130 130 130 130
49 49 50 50 51 52 53 54 55 57 58 59 60 61 62 63 64 65 66 66 67 68 69 69 69 66 67 70 73 73 74 75 76 78 79 81 82 83 85 86 88 89 91 92 93 95 96 97 98 99 99 100 102 103 104 105 107 108 109 109 110 111 112 113 114 115 116 117 118 119 120 121 121 122 123 124 124 125 125 125 126 126 126 126 126 126
46 47 47 48 50 51 53 54 55 57 58 59 61 62 63 64 65 66 67 67 67 68 69 69 69 67 66 68 70 71 71 72 73 74 75 77 78 79 81 83 84 86 87 88 89 91 92 93 94 94 95 96 97 99 100 101 102 103 104 105 106 107 108 109 110 110 112 113 114 115 116 116 117 118 119 119 120 120 121 121 121 121 122 122 122 122
46 47 48 49 50 51 52 53 54 55 57 58 60 61 63 64 65 66 68 68 69 69 70 70 70 69 68 68 69 70 70 71 71 72 73 74 75 77 78 79 81 82 83 84 85 87 88 89 90 90 91 92 93 94 95 96 98 98 99 100 101 102 103 104 105 106 107 108 109 110 111 112 113 114 115 115 116 116 117 117 117 117 117 117 117 117
48 48 49 49 49 50 50 51 52 53 54 56 58 59 61 61 62 64 65 67 67 67 68 68 67 68 68 66 67 69 69 70 71 71 72 72 73 75 76 77 78 79 80 81 82 83 83 84 85 86 87 88 89 91 92 93 94 95 96 97 98 99 100 101 102 103 104 105 106 107 108 109 110 111 111 112 112 113 113 113 113 114 114 114 114 114
46 46 47 47 48 48 49 51 51 52 53 54 55 57 59 59 59 60 63 65 64 64 65 66 65 65 66 65 64 65 66 67 68 69 69 70 71 72 73 74 75 76 76 77 78 79 80 80 81 82 83 85 86 87 88 89 90 91 92 93 94 96 97 98 99 100 101 102 103 104 105 106 107 107 108 109 109 110 111 111 111 111 112 112 112 112
42 43 44 44 45 46 47 48 49 50 51 52 54 55 57 57 57 58 60 62 63 62 62 63 63 62 63 63 62 62 63 63 64 65 66 67 68 69 70 70 71 72 73 73 74 75 76 76 77 78 80 81 82 83 84 85 87 88 89 90 91 92 93 95 96 97 98 99 100 101 102 103 103 104 105 105 106 107 107 108 108 108 108 109 109 109
42 42 42 43 44 44 45 46 47 48 49 50 52 54 56 57 55 55 57 59 61 61 60 60 61 61 62 62 62 61 62 62 63 64 64 65 66 67 68 69 70 70 71 71 72 73 73 74 75 76 77 79 80 81 82 83 85 86 87 88 89 90 91 92 93 94 95 96 97 98 98 99 100 100 101 101 101 102 102 102 103 103 103 103 103 103
44 44 43 44 45 45 46 46 47 48 48 50 52 54 56 57 56 55 56 56 57 59 60 59 60 60 61 62 62 62 62 62 63 64 65 65 66 67 69 70 70 71 72 72 73 73 74 75 76 77 78 79 80 81 83 84 85 86 87 88 89 90 90 91 92 93 93 94 95 95 96 96 97 97 97 97 97 97 97 97 97 97 97 97 97 97
47 47 47 46 46 47 48 48 49 49 50 51 53 55 57 59 59 56 56 56 56 57 58 58 59 59 59 60 61 62 62 62 63 64 65 66 67 68 70 71 71 72 73 73 74 74 75 76 77 78 79 80 81 82 83 84 85 86 87 87 88 89 89 90 90 91 91 92 92 93 93 93 93 93 93 92 92 92 92 92 92 92 91 91 92 92
51 51 51 50 50 49 49 50 50 51 51 52 54 55 58 61 62 60 59 59 59 58 59 58 58 58 58 58 59 60 61 62 62 63 64 65 66 67 68 69 71 71 72 73 74 75 75 76 77 77 79 79 81 82 83 83 84 85 85 86 86 87 87 87 87 87 88 88 88 88 88 88 88 88 88 88 88 87 87 87 87 87 87 87 87 87
53 53 53 53 53 53 53 53 53 53 54 54 55 57 60 63 66 64 62 62 62 60 60 59 59 59 58 58 59 60 60 61 61 63 63 63 64 65 66 67 68 70 71 72 73 74 74 75 75 76 77 78 79 80 81 81 82 82 83 83 84 84 84 84 84 84 84 85 85 84 84 84 84 84 84 84 84 84 84 84 84 84 83 84 84 83
55 55 54 55 55 55 56 56 57 57 57 58 59 61 62 64 67 67 65 65 65 64 63 62 61 60 59 58 58 58 59 59 60 61 62 61 62 63 64 66 67 68 69 70 71 72 72 73 74 74 75 76 77 78 79 79 80 80 80 80 81 81 81 80 81 81 81 82 81 81 81 81 81 81 81 81 81 81 81 80 80 80 80 80 80 79
56 56 56 56 57 57 58 58 59 59 60 61 62 62 63 64 67 69 68 67 67 66 65 64 63 61 60 59 58 58 58 58 58 60 61 62 63 64 64 65 66 67 68 69 70 70 70 71 71 72 73 74 75 76 76 77 77 78 78 77 77 77 77 77 77 78 78 78 78 78 78 78 78 78 79 79 78 78 78 78 78 77 77 76 76 74
59 58 59 58 59 59 59 60 61 62 63 64 64 65 65 65 66 67 69 68 67 67 66 65 64 63 61 60 59 58 58 57 57 59 61 62 63 65 65 66 67 68 68 69 69 69 69 69 70 70 71 72 73 74 74 75 75 75 75 74 74 74 74 74 75 75 75 75 75 75 74 75 75 76 76 76 76 76 76 76 76 75 74 73 72 71
63 62 62 62 61 61 62 63 64 65 66 66 67 68 68 68 67 68 69 69 69 69 68 67 66 64 62 62 60 59 59 59 57 57 59 61 62 64 66 67 67 68 69 70 70 70 69 69 69 69 70 71 72 72 72 72 72 72 72 72 72 72 72 72 72 73 73 72 72 72 72 72 72 73 73 73 73 73 73 73 73 72 71 70 69 67
67 67 66 66 66 66 65 65 66 66 68 69 70 71 71 71 70 70 70 71 71 71 70 69 68 66 65 63 62 60 60 60 59 57 58 60 61 63 65 66 67 68 68 69 69 69 68 68 68 68 69 70 70 70 70 70 69 69 69 69 69 69 69 69 70 70 70 70 69 69 69 70 70 70 70 70 70 70 70 70 69 69 67 66 65 64
70 70 70 70 69 69 70 70 69 69 71 72 72 73 74 74 73 72 71 71 70 70 71 71 69 68 67 65 64 62 61 61 61 60 59 60 61 62 64 66 68 68 69 69 69 68 68 67 67 67 67 68 68 67 67 67 67 67 67 67 67 67 67 67 67 67 67 67 67 67 67 67 67 67 67 67 68 68 67 66 66 65 63 62 61 61
72 72 72 72 72 72 72 73 73 73 73 74 75 75 76 76 76 75 74 73 73 73 73 73 72 71 70 68 67 66 65 63 63 63 62 62 63 64 65 67 68 69 69 69 68 68 67 66 66 66 66 66 65 65 65 65 65 65 65 66 66 66 65 65 65 66 65 65 65 65 64 64 64 63 63 64 66 65 64 63 63 62 60 58 58 58
74 74 74 74 74 74 74 75 75 76 76 76 77 78 78 78 78 78 78 77 77 77 77 77 76 75 74 73 72 71 70 68 67 66 65 65 65 66 67 69 69 69 69 69 68 68 67 66 65 65 65 64 63 63 63 63 63 64 64 64 64 64 64 64 64 65 64 64 63 63 62 61 61 60 61 61 62 62 60 59 59 58 57 55 55 56
76 76 76 76 76 76 76 76 76 77 78 78 79 80 81 81 81 82 81 80 80 81 81 81 80 79 78 77 76 75 74 73 71 70 68 68 68 69 70 71 72 72 72 71 70 69 68 67 66 65 64 63 62 62 62 63 63 63 63 63 63 63 63 63 63 63 63 62 61 61 60 59 58 58 59 60 60 59 58 56 55 55 54 53 53 54
78 78 78 79 79 78 79 79 78 79 80 81 81 81 82 83 83 83 83 83 82 82 83 83 82 82 82 81 80 79 78 76 74 73 72 71 71 72 73 74 75 75 75 74 73 71 70 68 67 65 64 63 63 62 63 63 64 63 63 63 62 62 62 62 61 61 60 60 59 59 58 57 57 57 57 58 59 58 56 54 53 52 51 50 51 52
81 81 81 82 82 82 82 83 82 82 83 84 84 84 84 84 84 83 83 83 84 84 84 85 85 84 84 84 83 81 80 78 77 75 74 73 73 74 75 76 77 77 77 76 75 74 72 71 69 67 66 65 64 64 64 64 64 64 64 63 62 62 61 60 60 59 58 58 57 57 56 56 55 55 56 57 57 57 55 53 51 50 48 48 48 49
83 84 84 85 85 86 86 87 87 86 85 85 86 86 86 86 86 86 85 85 85 85 86 86 87 86 86 85 84 83 81 80 78 77 75 74 74 75 76 77 78 78 78 78 77 76 74 72 71 69 67 66 66 65 65 65 65 65 64 64 63 62 61 60 59 58 57 57 56 56 55 55 54 54 53 54 55 55 54 51 49 48 46 45 45 46
86 87 87 87 87 88 88 88 88 88 87 86 86 86 87 87 87 87 86 86 86 86 87 87 88 88 87 87 86 84 83 82 80 78 77 76 75 75 76 78 79 79 79 79 78 77 75 73 71 70 68 67 66 66 65 65 65 65 65 64 63 62 60 59 58 57 57 56 56 55 54 54 53 52 51 51 52 53 53 50 48 46 44 43 42 43
89 89 89 89 89 89 89 89 90 90 89 89 88 88 88 88 88 88 87 87 87 87 88 88 89 89 89 88 88 86 85 84 82 80 79 77 76 77 77 78 80 80 80 79 78 77 75 74 72 70 69 68 67 66 66 65 65 65 65 64 64 62 61 59 58 57 56 56 55 54 53 53 52 52 50 49 49 51 51 49 46 45 44 41 40 40
91 91 91 91 91 91 91 92 92 92 91 91 90 89 89 88 88 88 88 87 87 87 88 89 90 91 91 90 89 88 87 86 84 83 81 79 78 78 78 79 81 81 81 80 78 77 76 74 72 70 69 69 68 67 67 66 65 65 64 64 64 63 61 60 58 57 56 55 54 53 52 51 51 50 50 48 47 48 50 49 46 44 43 41 39 39
93 93 93 93 93 93 93 93 93 93 92 91 91 90 90 89 89 89 88 88 88 88 89 90 91 92 93 92 91 90 89 88 87 85 83 82 80 79 80 80 81 82 82 81 79 78 76 75 73 71 70 69 69 68 67 66 65 64 64 64 63 62 61 60 58 57 56 55 54 53 52 51 50 49 49 48 47 46 47 49 47 43 41 40 39 38
95 95 96 96 96 96 96 96 95 95 94 94 92 91 91 90 90 90 89 89 88 89 90 91 92 93 94 94 94 93 91 90 89 87 86 84 82 81 81 81 82 83 83 82 81 79 77 76 74 72 71 70 69 68 67 66 65 64 63 63 62 61 60 59 58 57 57 56 55 54 53 51 50 49 49 49 48 45 45 46 47 45 41 39 37 35
96 97 98 98 99 99 99 99 99 98 97 97 95 94 93 92 92 91 90 90 89 90 90 92 93 94 95 95 95 95 94 92 91 89 88 86 84 83 83 83 83 84 84 82 81 80 78 77 75 73 72 71 70 69 68 67 65 64 63 63 62 61 59 58 58 57 57 56 56 54 53 52 51 50 49 48 47 46 44 44 45 46 44 40 36 33
Wind_Direction
279 279 279 279 280 279 279 279 279 279 279 278 278 278 278 278 278 278 278 278 278 278 278 278 279 279 279 279 279 278 278 278 277 277 276 276 275 275 275 274 274 273 273 273 273 273 273 273 273 273 273 273 273 273 273 273 273 273 273 273 273 273 273 273 273 273 272 272 272 272 272 272 272 272 271 271 271 271 271 271 271 270 270 270 269 269
280 281 281 281 281 280 280 280 279 279 279 279 279 279 279 279 279 279 279 279 278 278 278 279 278 278 278 278 278 278 278 277 277 276 276 276 275 275 274 274 274 273 273 273 273 273 273 273 273 273 273 273 273 273 273 273 273 273 273 273 273 273 273 273 273 273 273 272 272 272 272 271 271 271 271 271 271 270 270 270 270 270 270 270 269 269
281 281 281 281 281 281 280 280 280 279 279 279 279 279 279 279 279 279 279 279 278 278 279 279 278 278 278 278 278 278 277 277 277 276 276 276 275 275 275 274 274 274 274 274 274 273 273 273 273 273 273 273 273 273 273 273 273 273 272 272 272 272 272 272 272 272 272 272 272 272 271 271 271 271 271 270 270 270 270 270 269 269 269 269 269 269
281 281 281 281 281 281 281 280 280 280 279 279 279 279 279 279 279 279 279 279 279 279 279 279 278 278 278 279 278 278 278 277 277 277 277 276 276 275 275 275 274 274 274 274 274 274 274 274 274 274 274 274 273 273 273 273 273 272 272 272 272 272 272 272 272 272 272 272 272 271 271 271 271 271 271 270 270 270 270 270 270 269 269 269 269 269
281 281 281 281 281 281 281 281 281 280 280 280 280 280 280 280 280 280 279 279 279 279 280 279 278 278 279 279 278 278 278 278 278 277 277 277 276 276 275 275 275 275 275 275 275 275 275 275 275 275 275 275 274 274 274 274 274 274 273 273 273 273 273 273 273 272 272 272 272 272 272 272 272 271 271 271 270 270 270 270 269 269 269 269 269 269
281 281 282 281 282 281 281 281 281 281 281 281 281 281 281 281 281 281 280 280 280 280 280 280 279 279 278 278 279 279 279 278 278 278 277 277 277 276 276 276 276 276 276 276 276 276 276 276 276 275 275 275 275 275 275 275 275 274 274 274 274 274 274 274 273 273 273 273 273 273 272 272 272 272 271 271 271 271 270 270 270 270 270 269 269 269
282 282 282 282 282 282 282 282 282 281 281 281 281 281 281 282 281 281 281 281 281 280 280 280 280 280 278 278 279 279 279 279 278 278 277 277 277 277 277 277 277 277 277 277 276 276 276 276 276 276 276 275 275 275 275 275 275 275 275 275 275 275 274 274 274 274 273 273 273 272 272 272 272 272 271 271 271 271 271 271 271 270 270 270 270 270
284 284 284 283 283 283 283 283 282 282 282 282 282 282 281 281 281 281 281 281 281 281 280 280 280 280 279 278 278 278 279 279 278 278 277 277 277 277 277 277 277 277 277 277 276 276 276 276 276 276 276 276 276 276 276 276 276 276 275 275 275 275 275 274 274 274 274 274 273 273 273 273 273 273 272 272 272 272 271 271 271 271 271 270 270 270
286 285 285 285 285 284 284 284 283 283 283 282 282 282 282 282 282 282 282 282 282 282 281 281 280 280 280 280 279 279 278 278 278 278 278 278 278 278 278 278 277 277 277 277 277 276 276 276 276 276 276 276 276 276 276 276 275 275 275 275 275 275 275 275 274 274 274 274 274 274 274 274 274 273 273 273 273 273 272 272 272 272 271 271 271 271
287 287 287 287 286 286 286 285 285 285 285 284 284 284 284 284 283 284 283 283 283 283 283 283 282 281 281 281 281 280 279 278 278 279 279 279 279 279 278 278 278 278 278 277 277 277 277 277 277 277 276 276 276 276 276 275 275 275 275 275 275 275 275 275 275 274 274 274 274 274 274 274 274 274 274 274 274 273 273 273 273 272 272 272 272 271
289 289 288 288 288 288 287 287 287 287 286 286 286 286 285 285 285 285 285 284 284 284 283 283 283 283 282 283 282 281 280 279 279 280 280 280 279 279 279 279 279 279 278 278 278 278 277 277 277 277 276 276 276 276 276 276 275 275 275 275 275 275 275 275 275 275 275 275 275 275 275 275 274 274 274 274 274 274 273 273 273 273 272 272 272 271
289 288 288 288 288 287 287 287 287 287 287 286 286 286 285 285 285 285 285 284 284 284 284 283 283 283 283 283 282 281 280 280 280 280 280 280 279 279 279 279 279 278 278 278 277 277 277 277 277 277 276 276 276 276 276 276 276 276 276 276 276 276 275 275 275 275 275 275 275 275 275 275 275 274 274 274 274 274 273 273 273 273 272 272 272 271
290 290 290 289 289 289 289 288 288 287 287 287 286 286 285 285 285 284 284 283 283 283 283 283 283 282 282 282 281 280 280 280 280 279 279 279 279 279 279 278 278 278 277 277 277 277 277 277 276 276 276 276 276 276 276 275 275 275 275 275 275 275 275 275 275 275 275 275 275 274 274 274 274 274 274 274 273 273 273 273 273 273 272 272 272 272
293 293 292 292 291 291 290 289 289 288 288 287 287 286 286 285 284 284 283 283 283 283 283 282 282 282 282 282 282 281 280 279 279 279 279 279 279 279 278 278 278 278 278 277 277 277 277 277 276 276 276 276 276 275 275 275 275 275 275 275 275 275 275 275 275 274 274 274 274 274 273 273 273 273 273 273 272 272 272 272 272 272 272 272 272 272
294 293 292 292 291 291 290 290 289 288 288 287 287 286 286 285 284 284 283 283 283 283 283 283 282 282 282 282 282 282 281 280 280 279 279 279 278 278 278 278 278 278 278 278 278 277 277 277 277 277 276 276 276 276 275 275 275 275 275 275 275 275 274 274 274 274 274 274 274 274 273 273 273 273 273 273 272 272 272 272 272 272 272 272 271 271
293 292 292 291 291 291 290 290 289 289 288 287 287 287 286 286 286 285 284 284 283 283 283 282 282 282 282 282 282 281 281 281 280 280 280 279 279 279 278 278 278 278 277 277 277 277 277 277 277 276 276 276 276 276 276 275 275 275 275 275 275 275 275 275 274 274 274 274 274 274 274 274 274 274 274 273 273 273 273 273 272 272 272 272 272 271
294 293 292 292 291 291 290 290 289 289 289 288 288 287 287 286 286 286 285 285 285 284 284 283 283 282 282 282 282 281 281 281 281 281 280 280 280 280 279 279 279 278 278 278 277 277 277 277 277 277 276 276 276 276 276 276 276 275 275 275 275 275 275 275 275 275 275 275 275 275 275 275 275 274 274 274 274 274 274 274 273 273 273 273 272 272
295 294 293 293 293 292 291 291 290 290 290 289 289 288 288 288 288 287 287 287 286 286 286 286 285 285 284 284 284 283 283 283 282 282 282 281 281 281 280 280 280 279 279 279 278 278 278 278 278 277 277 277 277 277 277 276 276 276 276 276 276 276 276 276 276 276 276 276 276 275 275 275 275 275 275 275 275 275 275 274 274 274 274 273 273 273
296 296 295 295 294 294 293 293 292 292 291 291 290 290 290 290 289 289 289 289 288 288 288 288 288 288 287 286 286 285 285 284 284 284 283 283 282 282 282 281 281 280 280 280 280 279 279 279 279 279 278 278 278 278 278 278 278 277 277 277 277 277 277 277 277 277 277 277 277 276 276 276 276 276 276 275 275 275 275 274 274 274 274 273 273 273
299 298 298 297 297 297 296 296 295 295 294 294 294 293 293 293 292 292 292 291 291 290 289 289 289 289 289 288 287 286 286 285 285 285 284 284 283 283 282 282 282 282 281 281 281 280 280 280 280 279 279 279 279 279 279 279 278 278 278 278 278 278 278 277 277 277 277 277 277 276 276 276 276 275 275 275 275 275 274 274 274 274 274 274 274 274
304 303 302 302 301 301 300 300 300 299 299 298 298 298 297 297 296 296 296 295 295 294 294 292 291 291 291 289 288 287 287 286 286 285 285 284 284 284 283 283 282 282 282 282 282 281 281 281 281 280 280 280 280 280 280 279 279 279 279 279 279 278 278 278 278 278 277 277 277 277 276 276 276 276 275 275 275 275 275 275 275 275 275 275 275 275
308 307 307 306 306 305 304 304 303 302 301 301 300 300 300 300 300 299 299 299 298 297 297 296 294 294 293 291 290 290 289 288 287 287 286 285 285 284 284 284 283 283 283 283 282 282 282 282 281 281 281 281 281 281 280 280 280 280 280 279 279 279 279 279 278 278 278 278 277 277 277 277 276 276 276 276 276 276 276 276 276 275 275 275 275 275
313 313 312 311 311 310 309 308 308 307 307 307 306 306 305 305 304 303 303 302 302 301 300 299 298 297 295 294 293 292 291 290 290 289 288 287 287 286 286 285 285 285 284 284 284 284 283 283 283 282 282 282 282 282 281 281 281 280 280 280 280 280 279 279 279 279 278 278 278 278 278 277 277 277 277 277 277 277 277 276 276 276 276 276 276 276
319 318 319 318 318 318 318 317 316 315 314 314 313 312 312 311 310 310 309 308 308 307 306 305 304 303 301 299 298 297 296 294 293 292 291 291 290 289 288 288 287 287 286 286 286 286 285 285 285 285 284 284 284 283 283 282 282 282 281 281 281 280 280 280 280 279 279 279 278 278 278 278 278 278 278 277 277 277 277 277 277 277 277 277 276 276
326 326 326 326 325 324 322 321 319 318 317 316 316 315 314 314 313 312 312 311 311 310 309 308 307 306 305 303 302 301 299 298 297 296 294 293 293 292 291 290 290 289 289 289 288 288 288 288 287 287 286 286 285 284 284 283 283 283 282 282 282 281 281 281 280 280 280 280 279 279 279 279 279 279 279 279 278 278 278 278 278 278 278 277 277 277
332 331 330 328 326 324 323 321 320 319 319 318 317 317 316 315 314 313 313 312 311 310 309 308 308 307 306 305 304 302 302 301 299 298 297 297 296 295 294 294 293 293 292 292 291 291 290 290 289 289 288 287 287 286 285 285 285 284 284 283 283 283 282 282 282 281 281 281 281 281 280 280 280 280 280 280 280 280 280 279 279 279 278 278 278 277
335 333 330 328 327 326 325 324 323 322 322 321 320 319 318 318 318 317 315 314 313 313 312 311 310 309 308 307 306 304 303 302 301 300 299 299 298 297 297 296 296 295 295 294 294 293 292 291 290 289 289 288 287 287 286 286 285 285 285 284 284 284 283 283 283 282 282 282 282 282 282 281 281 281 281 281 281 280 280 280 280 279 279 278 278 278
336 333 331 331 330 329 328 327 326 326 325 325 324 323 322 322 323 323 321 319 318 317 316 315 314 312 310 309 308 306 304 303 302 302 301 301 300 300 300 299 298 298 297 296 296 295 294 293 292 291 290 289 289 288 288 287 286 286 286 285 285 285 284 284 284 284 283 283 283 283 283 282 282 282 281 281 281 280 280 280 279 279 279 278 278 278
339 338 337 336 335 334 332 332 331 331 331 330 329 328 327 327 328 329 327 326 323 321 320 319 318 316 314 313 311 310 309 308 307 307 306 305 305 305 304 303 303 302 301 300 299 298 297 296 295 294 294 293 292 291 290 290 289 289 288 288 287 287 286 286 286 286 285 285 285 284 284 284 283 283 282 282 282 281 281 280 280 280 279 279 279 278
345 344 343 342 340 340 339 337 336 336 336 335 335 334 333 331 333 335 333 331 328 326 324 323 322 321 319 318 316 315 314 313 312 311 311 310 310 310 309 308 308 307 306 305 304 302 301 300 299 299 298 297 296 295 294 293 293 292 292 291 291 290 290 290 290 289 289 289 288 287 287 286 286 285 285 285 284 284 283 283 282 282 281 281 280 280
350 348 348 347 346 345 344 343 341 340 340 341 340 340 338 337 337 339 337 334 333 332 330 328 327 325 324 322 320 318 317 316 315 314 314 314 314 314 313 312 311 309 308 307 306 305 304 303 302 301 300 299 298 297 296 296 295 295 294 294 293 293 293 292 292 291 291 290 290 289 289 289 288 288 287 287 287 286 285 285 284 283 283 282 282 281
354 352 351 350 349 348 347 346 345 344 344 345 344 344 344 342 341 341 341 340 339 338 335 333 330 328 326 324 322 320 319 319 318 317 317 316 316 314 313 312 311 310 309 308 307 306 305 304 303 302 301 300 299 298 297 297 296 296 296 295 295 294 294 294 293 293 292 291 291 291 290 290 290 290 289 289 288 287 287 286 285 285 284 283 283 282
355 355 353 352 351 351 350 349 349 348 348 348 348 348 348 348 346 345 345 344 342 341 339 337 335 333 330 328 326 324 322 321 319 318 317 317 316 315 314 313 312 311 310 309 308 307 306 305 304 303 302 301 300 300 299 298 298 298 297 297 297 296 296 295 295 294 293 293 292 292 292 292 292 291 290 290 289 288 287 287 286 285 285 284 284 283
357 356 355 354 354 353 353 352 352 352 351 352 352 352 352 351 349 347 347 347 346 344 343 342 340 337 335 332 330 327 324 323 321 319 318 318 316 316 315 314 314 313 312 311 310 309 308 307 306 305 304 303 302 301 301 301 300 300 300 299 299 298 298 297 296 295 295 295 294 294 294 294 293 292 291 290 289 289 288 287 286 286 285 285 284 284
358 357 357 356 355 355 355 354 354 354 354 354 354 354 353 353 353 351 350 349 349 347 346 345 343 341 339 336 333 330 327 326 324 321 320 321 320 319 319 318 317 316 315 314 313 312 311 310 308 307 306 305 304 304 303 303 303 303 302 301 301 300 299 299 298 297 297 297 297 297 296 295 294 293 292 292 291 291 290 289 288 287 287 286 286 286
359 359 358 357 357 356 356 356 356 356 356 356 355 355 355 354 354 354 352 351 350 349 348 347 345 343 341 338 336 333 330 328 327 325 324 324 323 323 322 322 321 320 319 317 316 315 314 313 311 310 309 308 307 307 306 306 305 305 304 303 303 302 301 301 300 300 299 299 299 298 297 296 295 294 294 293 293 292 291 290 290 289 289 289 289 289
1 0 359 359 358 358 358 358 358 357 357 356 356 356 356 355 355 355 354 353 352 351 350 349 347 345 343 341 338 336 333 331 330 329 327 326 325 325 325 325 324 323 321 320 319 318 317 316 314 313 312 311 310 310 309 308 308 307 306 305 305 304 303 303 302 302 301 300 300 299 298 297 296 295 295 295 294 293 292 291 291 291 291 291 291 290
3 2 1 0 359 359 359 359 358 358 357 357 357 357 356 356 356 356 355 354 354 353 351 350 349 347 345 343 341 339 337 334 332 331 329 328 328 328 327 327 326 325 324 323 322 321 319 318 317 316 315 314 313 313 312 311 310 309 308 307 306 306 305 305 304 303 302 302 301 300 299 299 298 298 297 296 295 294 293 293 293 293 293 292 292 291
4 3 2 1 1 360 359 359 359 359 359 358 358 358 357 357 356 356 356 355 354 354 353 352 350 349 347 345 343 341 340 338 336 334 332 331 331 330 330 329 328 327 327 326 325 323 322 321 320 319 318 317 316 315 314 313 313 311 310 309 309 308 307 306 305 304 304 304 303 302 301 301 300 300 299 298 296 295 295 295 295 294 294 294 293 291
5 4 3 2 2 1 0 360 359 359 359 359 358 358 358 358 357 356 356 356 355 355 354 353 352 351 349 348 346 344 343 341 339 337 336 335 334 334 333 332 331 330 329 328 327 326 324 323 323 322 321 320 320 319 317 316 315 314 313 312 311 310 310 309 308 307 307 306 306 305 304 303 302 301 300 299 297 297 297 297 296 296 295 295 293 291
6 5 4 3 2 1 1 1 360 359 359 359 358 358 358 358 358 357 357 357 357 356 356 355 354 353 351 350 349 347 345 344 342 340 339 338 337 337 336 335 333 333 332 331 330 329 328 327 326 326 325 324 323 322 321 319 318 316 315 314 314 313 312 312 311 311 310 309 308 307 306 305 305 303 302 300 299 299 299 299 298 297 297 296 294 292
7 6 5 4 3 2 1 1 0 359 358 359 359 359 358 358 358 358 357 357 357 357 356 356 355 354 354 353 351 350 348 346 345 343 342 341 340 339 339 337 336 336 335 334 333 332 331 330 330 329 328 327 326 325 324 322 321 319 318 317 316 316 315 315 314 313 312 311 310 309 308 308 307 306 305 303 302 301 301 301 300 299 299 298 295 293
7 7 6 5 4 3 2 1 1 360 359 359 359 359 359 359 359 359 358 357 357 357 357 356 356 356 355 354 353 352 350 348 347 345 344 343 342 342 341 340 339 338 338 337 336 335 334 333 333 332 332 331 330 329 327 325 323 322 321 320 319 318 318 317 316 315 313 312 311 311 311 310 310 309 308 306 305 304 304 304 303 302 301 299 296 294
8 7 7 6 4 3 2 1 1 1 360 359 359 359 359 359 359 359 358 358 357 357 357 357 357 357 356 355 354 353 351 349 348 347 345 344 344 343 343 342 341 340 340 339 338 337 336 336 336 335 335 334 333 331 330 328 326 325 324 323 322 321 320 319 318 317 315 314 314 314 314 313 312 312 310 309 307 306 306 306 305 304 302 300 297 295
8 7 7 7 5 4 3 1 1 1 360 359 359 358 358 359 359 358 358 358 357 357 357 357 357 357 357 356 355 354 352 351 349 348 347 345 345 344 344 343 342 342 341 340 340 339 338 338 338 337 337 336 335 334 332 330 329 327 326 325 323 323 322 321 320 319 318 317 317 317 317 316 314 313 312 311 309 308 307 307 307 305 304 301 299 297
9 8 7 7 6 5 4 2 1 0 360 359 359 358 358 358 358 358 358 358 358 357 357 358 357 357 357 356 355 355 353 352 350 349 348 347 346 345 345 345 344 343 343 342 341 340 340 340 339 339 338 337 336 335 334 332 331 329 327 326 325 325 324 324 323 322 321 320 320 320 319 318 317 315 314 313 311 309 309 309 308 307 305 303 301 299
9 8 7 7 6 5 4 3 2 1 360 359 359 359 358 358 358 358 358 358 358 357 357 358 358 357 357 357 356 355 354 353 352 350 349 348 347 347 346 346 345 344 344 343 342 342 341 341 341 340 339 339 338 337 336 334 333 331 329 328 327 327 326 326 325 324 323 322 322 322 321 320 319 317 316 315 314 312 310 310 310 309 307 306 304 302
9 9 8 7 6 6 5 4 2 1 0 360 359 359 358 358 358 358 358 358 357 357 357 358 358 357 357 357 357 356 355 354 353 352 350 349 348 348 348 347 347 346 345 344 344 343 342 342 342 341 341 340 339 338 337 336 335 333 331 330 330 329 329 328 327 326 325 324 324 324 323 322 321 320 319 318 317 315 313 312 312 311 309 309 307 305
9 8 8 7 6 6 5 4 3 2 1 360 359 359 358 358 358 358 358 358 358 358 358 358 358 358 357 357 357 356 356 355 354 353 351 350 349 349 349 349 348 347 346 346 345 344 344 343 343 342 342 342 341 340 339 338 336 335 334 332 332 331 331 330 329 328 327 326 326 326 326 325 324 323 321 320 319 318 316 314 313 313 312 311 310 308
8 8 8 7 6 6 5 4 3 2 1 0 360 359 358 358 358 358 358 358 358 358 358 358 358 358 358 357 357 357 357 356 355 353 352 351 350 349 349 350 349 348 347 347 346 345 345 344 344 343 343 343 342 341 341 340 338 337 336 334 334 333 332 331 330 329 328 328 328 329 328 327 326 325 324 323 321 320 318 316 315 314 313 312 312 311
7 7 7 7 6 5 5 4 4 3 2 1 360 359 359 358 358 358 358 358 358 358 358 358 358 358 358 358 358 357 357 356 355 354 353 352 351 350 350 350 350 349 348 348 347 347 346 345 345 344 344 344 344 343 342 342 340 339 338 337 335 335 334 333 332 331 331 330 330 330 330 329 328 327 326 325 323 322 321 319 317 315 315 314 313 311